Date,TemperatureHighF,TemperatureAvgF,TemperatureLowF,DewpointHighF,DewpointAvgF,DewpointLowF,HumidityHigh,HumidityAvg,HumidityLow,PressureMaxIn,PressureMinIn,WindSpeedMaxMPH,WindSpeedAvgMPH,GustSpeedMaxMPH,PrecipitationSumIn
2013-1-1,32.0,20.5,7.1,15.3,6.1,0.7,82,56,31,30.43,30.30,10,0,10,0.00
2013-1-2,39.1,24.2,10.0,9.0,5.2,1.2,74,46,22,30.41,30.26,9,0,10,0.00
2013-1-3,40.2,26.3,12.1,7.4,3.0,0.0,73,39,9,30.40,30.31,10,0,10,0.00
2013-1-18,21.9,18.2,17.0,7.8,3.9,1.9,55,53,51,30.41,30.38,0,0,0,0.00
2013-1-19,49.9,25.3,10.6,11.0,2.1,0.0,66,41,8,30.47,30.32,9,0,11,0.00
2013-1-20,49.5,27.7,12.1,8.8,2.1,0.0,68,37,10,30.41,30.25,8,0,8,0.00
2013-1-21,51.1,29.9,14.1,9.7,2.6,0.0,68,35,7,30.42,30.29,8,0,9,0.00
2013-1-22,58.1,32.5,11.1,16.1,5.9,0.0,65,37,5,30.41,30.27,6,0,6,0.00
2013-1-23,55.2,44.3,30.1,34.0,26.9,14.0,77,51,35,30.34,30.06,9,0,9,0.00
2013-1-24,48.3,40.0,33.2,43.2,36.9,31.7,95,88,76,30.18,30.00,5,0,5,0.14
2013-1-25,45.7,39.3,34.0,43.3,37.8,32.7,96,94,88,30.18,29.96,3,0,4,0.27
2013-1-26,45.9,38.7,33.5,41.5,36.9,32.0,96,93,81,29.96,29.82,3,0,7,0.08
2013-1-27,38.2,31.0,20.7,33.4,25.1,17.9,92,79,58,29.91,29.82,13,1,13,0.01
2013-1-28,27.6,20.1,10.4,19.2,15.5,7.2,92,83,60,30.29,29.89,12,0,12,0.00
2013-1-29,48.8,32.8,10.9,26.8,19.8,8.3,92,63,38,30.40,30.29,13,1,14,0.11
2013-1-30,50.2,37.2,26.8,24.1,21.6,19.1,80,56,30,30.36,30.22,7,0,9,0.00
2013-1-31,49.6,34.2,23.1,27.3,23.4,19.9,92,67,33,30.34,30.22,10,0,10,0.00
2013-2-1,54.9,35.3,20.2,28.3,21.4,15.6,89,63,23,30.36,30.25,6,0,7,0.00
2013-2-2,56.0,40.1,25.6,33.0,24.4,18.1,86,57,25,30.35,30.20,7,0,8,0.01
2013-2-3,47.1,37.8,25.7,38.8,30.9,22.6,95,78,49,30.20,29.98,5,0,7,0.13
2013-2-4,50.2,34.1,23.3,30.0,22.5,14.3,93,67,28,30.22,30.09,9,0,11,0.01
2013-2-5,54.8,36.0,20.4,26.3,17.8,10.0,74,52,18,30.18,30.00,7,0,8,0.00
2013-2-6,48.4,34.1,20.4,24.1,10.4,0.0,77,40,6,30.17,29.94,8,0,11,0.00
2013-2-7,50.9,32.0,16.0,26.1,10.4,0.1,84,45,13,30.24,29.88,8,0,12,0.00
2013-2-8,26.5,22.1,18.5,22.0,18.5,15.2,90,86,78,29.91,29.77,8,0,11,0.00
2013-2-9,32.4,21.2,9.2,24.0,16.3,6.1,90,82,62,30.17,29.90,0,0,0,0.22
2013-2-10,32.7,17.9,3.5,22.0,11.6,0.0,92,77,48,30.22,30.13,0,0,0,0.00
2013-2-11,26.7,20.8,11.9,18.4,8.6,0.0,91,61,33,30.41,30.17,4,0,5,0.00
2013-2-12,37.2,22.5,6.8,12.8,7.7,0.9,79,55,33,30.56,30.40,7,0,9,0.00
2013-2-13,46.6,31.7,17.3,20.5,15.3,8.7,82,53,30,30.49,30.28,10,0,10,0.01
2013-2-14,44.8,30.8,17.7,23.3,18.4,14.8,90,63,35,30.41,30.27,7,1,12,0.00
2013-2-15,49.2,37.8,25.1,19.3,9.8,0.1,73,33,15,30.41,30.30,13,2,16,0.00
2013-2-16,55.0,38.7,21.1,15.0,6.6,0.0,65,29,7,30.37,30.05,8,0,9,0.00
2013-2-17,48.9,33.4,20.3,20.8,13.3,6.5,79,48,19,30.07,29.93,8,0,12,0.00
2013-2-18,51.8,30.9,14.2,24.0,13.3,0.9,83,52,17,30.13,29.97,6,0,7,0.00
2013-2-19,42.0,27.6,20.8,24.7,13.9,0.1,91,60,14,29.97,29.59,8,0,10,0.00
2013-2-20,31.4,21.1,12.6,23.0,17.2,9.5,91,85,67,30.10,29.53,12,0,15,0.00
2013-2-21,30.6,19.3,7.8,20.1,10.6,4.6,93,70,43,30.29,30.09,8,0,9,0.01
2013-2-22,41.9,23.6,7.7,18.2,10.3,2.9,82,60,31,30.40,30.28,8,0,11,0.03
2013-2-23,49.2,32.8,16.9,23.7,15.3,6.9,85,54,18,30.35,29.90,12,1,15,0.01
2013-2-24,32.6,24.8,16.6,7.1,0.7,0.0,49,29,13,30.36,30.03,22,3,22,0.00
2013-2-25,51.2,31.8,12.7,13.6,5.1,0.0,62,34,16,30.44,30.16,7,0,9,0.00
2013-2-26,42.4,30.2,19.1,11.8,6.4,0.0,70,38,17,30.27,30.08,11,1,11,0.00
2013-2-27,41.2,28.8,13.6,10.8,4.2,0.0,72,39,17,30.49,30.27,9,1,12,0.00
2013-2-28,48.4,31.9,16.0,16.3,9.9,4.1,74,44,20,30.55,30.44,12,1,12,0.00
2013-3-1,54.1,36.9,21.4,17.9,15.1,12.5,77,46,20,30.56,30.36,12,1,13,0.00
2013-3-2,62.0,40.6,21.2,23.4,16.0,3.8,79,42,13,30.45,30.17,9,0,9,0.00
2013-3-3,51.8,42.1,33.9,29.9,23.4,9.4,84,49,27,30.17,29.82,12,1,15,0.00
2013-3-4,52.4,38.1,24.5,31.6,26.5,18.0,90,66,31,30.11,29.86,8,1,10,0.00
2013-3-5,54.8,37.5,23.0,37.5,25.5,12.8,86,65,28,30.15,29.96,9,0,9,0.00
2013-3-6,51.5,36.8,27.6,28.7,21.8,8.2,87,59,22,30.00,29.88,7,0,9,0.00
2013-3-7,42.7,31.9,25.9,31.3,26.7,22.0,92,82,61,29.91,29.81,6,0,6,0.00
2013-3-8,30.1,26.8,23.1,25.8,23.1,20.6,93,86,71,29.98,29.68,2,0,4,0.00
2013-3-9,36.7,31.6,24.0,26.9,23.2,18.5,91,72,48,30.25,29.95,18,1,25,0.00
2013-3-10,47.8,35.8,23.9,20.1,12.1,4.1,65,40,17,30.35,30.21,10,1,19,0.10
2013-3-11,57.4,37.3,19.3,22.9,9.0,0.7,57,35,11,30.37,30.16,8,0,8,0.00
2013-3-12,60.3,40.8,23.9,25.1,18.1,9.2,75,45,19,30.26,30.13,9,1,11,0.00
2013-3-13,65.4,44.6,25.9,26.3,20.7,17.6,78,45,16,30.31,30.15,10,1,10,0.00
2013-3-14,70.1,47.6,27.8,31.8,23.0,18.0,77,43,17,30.24,30.08,9,1,11,0.00
2013-3-15,70.5,47.9,31.2,36.5,23.8,5.1,84,47,10,30.12,29.92,5,0,7,0.00
2013-3-16,62.8,49.8,37.5,28.9,19.0,10.0,61,32,13,29.92,29.77,8,1,9,0.00
2013-3-17,62.1,47.5,34.2,23.5,13.4,0.8,61,28,1,29.90,29.80,11,1,19,0.00
2013-3-18,61.4,45.0,27.7,24.3,16.6,3.2,56,34,16,30.00,29.87,7,0,10,0.00
2013-3-19,60.7,46.4,35.2,35.7,25.4,18.5,76,46,26,30.02,29.92,6,0,10,0.00
2013-3-20,58.9,47.1,35.8,35.5,30.4,22.7,74,55,25,30.02,29.84,12,1,12,0.00
2013-3-21,64.3,47.1,33.9,32.1,19.7,0.2,68,39,8,29.85,29.65,8,1,8,0.00
2013-3-22,58.5,43.1,28.4,26.1,10.5,0.3,67,29,6,29.86,29.65,10,1,11,0.00
2013-3-23,57.3,40.2,22.4,26.8,12.2,0.5,57,34,13,30.02,29.83,10,1,10,0.00
2013-3-24,59.3,42.5,28.9,23.2,17.5,9.4,68,41,16,29.99,29.87,9,0,9,0.00
2013-3-25,64.1,44.4,25.0,29.9,18.0,6.1,76,41,10,30.01,29.89,9,0,10,0.00
2013-3-26,61.9,45.8,33.1,32.1,17.4,0.1,77,39,9,29.91,29.77,8,0,10,0.00
2013-3-27,55.3,42.5,32.3,33.0,29.7,25.4,86,63,38,29.96,29.80,12,1,12,0.00
2013-3-28,61.1,44.5,31.9,35.4,30.0,25.3,88,61,30,30.03,29.93,7,0,7,0.00
2013-3-29,59.4,44.7,27.1,35.8,30.3,22.0,93,62,30,30.09,30.01,7,1,9,0.00
2013-3-30,59.4,47.7,36.3,35.3,30.8,26.8,88,55,31,30.07,29.92,8,1,12,0.00
2013-3-31,55.6,43.1,33.6,36.3,32.2,25.6,88,68,35,29.97,29.88,10,0,10,0.00
2013-4-1,53.7,40.4,28.0,33.0,23.3,10.2,86,56,20,30.03,29.92,10,1,12,0.00
2013-4-2,59.1,40.5,23.0,29.4,24.2,16.0,90,56,27,30.09,29.98,10,1,11,0.00
2013-4-3,62.0,44.4,26.2,35.9,26.7,20.1,84,55,25,30.15,30.03,9,1,10,0.00
2013-4-4,64.3,47.1,31.8,39.0,27.3,15.8,81,52,16,30.08,29.89,6,0,9,0.00
2013-4-5,62.4,46.8,34.4,41.3,30.9,12.0,91,61,17,29.94,29.83,12,1,12,0.00
2013-4-6,65.4,47.8,32.0,33.5,25.1,17.0,79,43,20,29.96,29.82,8,0,9,0.00
2013-4-7,64.8,48.6,33.8,41.4,27.5,17.5,78,46,19,29.89,29.64,8,0,8,0.00
2013-4-8,40.5,35.1,29.7,32.5,26.8,21.2,91,72,50,29.76,29.32,22,1,22,0.01
2013-4-9,46.0,36.6,27.1,22.9,10.1,0.1,74,36,13,30.09,29.75,15,2,17,0.00
2013-4-10,56.1,43.0,31.2,15.4,9.0,0.0,50,26,11,30.17,30.02,20,3,22,0.00
2013-4-11,64.5,45.2,28.2,27.3,21.2,12.2,66,42,18,30.05,29.72,7,1,9,0.00
2013-4-12,62.7,45.6,28.7,33.7,26.0,21.9,77,51,23,29.85,29.76,15,1,15,0.00
2013-4-13,61.7,48.4,33.2,29.9,21.7,3.8,67,38,17,29.84,29.64,11,1,11,0.00
2013-4-14,68.9,51.6,37.9,31.3,24.4,19.1,61,37,17,29.67,29.51,9,1,11,0.00
2013-4-15,61.3,45.9,34.0,34.8,20.4,0.2,84,42,9,29.60,29.51,10,1,12,0.00
2013-4-16,43.5,34.4,27.4,25.9,15.6,6.6,76,47,27,29.92,29.58,12,1,15,0.00
2013-4-17,42.2,32.6,23.9,22.2,9.9,0.0,85,43,17,30.25,29.91,13,2,13,0.01
2013-4-18,49.9,36.4,26.5,5.6,1.7,0.0,39,23,9,30.33,30.23,12,1,12,0.00
2013-4-19,61.7,43.1,22.2,17.5,5.9,0.0,40,23,11,30.33,30.03,12,1,12,0.00
2013-4-20,65.9,48.9,31.3,30.7,20.0,13.2,61,36,14,30.04,29.91,17,1,17,0.00
2013-4-21,73.4,51.1,29.9,33.4,23.7,12.5,71,41,11,30.03,29.88,8,0,9,0.00
2013-4-22,74.0,54.5,34.5,36.7,22.5,9.1,62,33,9,29.93,29.68,9,0,10,0.00
2013-4-23,60.7,48.8,38.4,31.4,18.4,6.6,62,34,13,29.86,29.70,13,1,13,0.00
2013-4-24,65.9,49.1,33.5,30.9,22.3,14.0,68,39,16,29.87,29.73,14,1,14,0.00
2013-4-25,61.2,47.4,30.8,31.3,20.8,9.6,76,40,14,30.00,29.74,9,1,10,0.00
2013-4-26,65.6,48.3,28.6,29.7,19.3,11.8,62,36,14,30.14,30.00,10,1,13,0.00
2013-4-27,68.3,51.5,30.8,33.5,16.9,4.6,73,34,9,30.17,29.99,15,1,15,0.00
2013-4-28,72.7,55.2,36.0,31.3,20.4,11.6,55,30,11,30.01,29.79,11,1,17,0.00
2013-4-29,75.9,56.3,36.3,36.2,19.5,12.2,63,29,9,29.84,29.65,8,1,10,0.00
2013-4-30,74.9,57.9,42.2,35.6,23.9,3.4,44,28,16,29.67,29.54,7,0,8,0.00
2013-5-1,60.9,50.3,36.1,28.4,8.7,0.0,61,21,6,30.12,29.63,12,2,14,0.00
2013-5-2,60.3,46.7,31.0,0.8,0.8,0.8,22,10,3,30.22,30.11,14,2,15,0.00
2013-5-3,68.0,48.7,24.7,15.6,4.4,0.1,37,18,6,30.15,29.84,11,1,13,0.00
2013-5-4,69.3,48.4,32.9,35.1,18.7,7.8,57,34,10,29.86,29.58,8,1,10,0.00
2013-5-5,53.2,43.9,36.5,36.4,25.3,11.2,89,52,27,29.77,29.62,7,0,8,0.00
2013-5-6,52.7,40.9,32.5,41.9,34.0,28.2,93,77,52,29.88,29.75,9,0,9,0.00
2013-5-7,51.3,39.0,30.8,33.9,30.4,26.4,89,72,42,29.99,29.87,6,1,8,0.00
2013-5-8,54.9,42.0,28.4,41.3,33.6,26.2,94,75,46,30.03,29.95,9,1,11,0.00
2013-5-9,58.1,43.6,29.2,41.4,34.5,27.7,95,74,35,30.05,29.96,10,1,13,0.05
2013-5-10,64.0,51.2,32.0,43.3,33.0,24.1,96,56,23,30.10,30.03,13,2,18,0.00
2013-5-11,70.0,54.6,34.8,36.3,28.0,22.0,80,41,18,30.10,29.99,13,1,14,0.00
2013-5-12,75.0,56.8,36.5,38.0,25.8,17.7,68,36,13,30.13,29.93,9,1,11,0.00
2013-5-13,77.1,59.7,38.9,40.6,29.8,18.0,71,37,11,30.02,29.85,10,0,10,0.00
2013-5-14,74.8,58.6,43.1,29.4,22.8,15.2,46,28,12,29.89,29.70,11,1,11,0.00
2013-5-15,73.5,56.1,43.2,38.4,28.9,19.1,64,38,16,29.82,29.73,7,1,11,0.00
2013-5-16,72.8,56.3,38.7,35.2,22.1,0.9,70,34,1,29.76,29.65,4,0,5,0.00
2013-5-17,63.1,50.4,39.9,37.4,30.9,22.8,83,51,22,29.79,29.64,3,1,5,0.00
2013-5-18,69.2,52.4,34.3,36.2,29.9,23.2,91,49,19,29.89,29.80,8,1,9,0.00
2013-5-19,70.0,54.9,36.6,27.7,23.1,19.5,52,31,16,29.86,29.78,7,1,7,0.00
2013-5-20,67.4,50.9,32.1,24.7,20.1,14.9,60,34,16,29.95,29.85,8,1,11,0.00
2013-5-21,73.1,55.2,33.2,37.2,23.8,11.1,56,32,13,29.95,29.71,3,1,4,0.00
2013-5-22,69.3,56.1,45.7,33.5,18.3,1.2,48,26,1,29.70,29.50,5,1,8,0.00
2013-5-23,67.1,53.0,39.2,32.6,9.2,0.2,58,19,1,29.73,29.55,3,0,6,0.00
2013-5-24,68.6,49.6,30.6,39.0,21.5,0.4,55,35,9,29.84,29.73,4,0,4,0.00
2013-5-25,71.1,53.1,37.7,23.0,8.4,0.0,37,18,4,29.82,29.76,8,0,11,0.00
2013-5-26,71.5,54.1,37.9,36.0,21.4,1.6,66,31,14,29.83,29.77,8,1,8,0.00
2013-5-27,73.8,56.6,40.5,41.2,29.2,11.7,66,40,12,29.81,29.65,8,1,11,0.00
2013-5-28,69.4,55.3,40.2,38.0,32.3,25.9,64,44,24,29.65,29.54,12,1,12,0.00
2013-5-29,73.7,56.8,36.2,42.1,29.8,3.3,76,41,7,29.72,29.59,17,1,17,0.00
2013-5-30,80.2,60.4,38.9,45.2,29.6,6.3,71,37,6,29.71,29.64,10,1,13,0.00
2013-5-31,75.2,61.5,45.0,26.5,22.2,12.8,43,24,14,29.79,29.69,12,2,16,0.00
2013-6-1,78.8,61.6,40.0,32.3,21.0,12.3,48,25,9,29.81,29.69,11,1,13,0.00
2013-6-2,82.2,62.9,42.6,43.8,30.1,20.2,56,32,11,29.72,29.52,8,1,11,0.00
2013-6-3,78.1,60.7,40.9,37.0,26.4,15.9,49,29,12,29.67,29.56,9,1,10,0.00
2013-6-4,76.3,58.6,38.1,33.7,23.4,14.4,60,31,10,29.79,29.66,12,1,12,0.00
2013-6-5,80.5,61.2,39.3,34.8,20.2,12.9,52,24,8,29.85,29.74,12,1,14,0.00
2013-6-6,84.1,64.1,43.3,36.6,24.5,18.6,49,25,10,29.80,29.67,11,1,12,0.00
2013-6-7,84.4,66.0,44.4,36.3,22.5,14.6,45,23,8,29.74,29.61,11,1,23,0.00
2013-6-8,89.0,68.8,46.5,41.7,23.0,8.4,52,24,5,29.68,29.60,14,1,14,0.00
2013-6-9,84.8,67.1,46.8,34.6,17.3,0.0,44,17,3,29.64,29.56,9,1,14,0.00
2013-6-10,72.8,60.1,46.9,30.3,18.7,5.6,39,21,8,29.76,29.58,13,1,14,0.00
2013-6-11,83.2,64.3,45.8,40.0,25.8,18.0,51,26,10,29.84,29.74,8,0,8,0.00
2013-6-12,83.0,63.5,46.8,41.5,26.4,6.3,43,26,11,29.80,29.68,7,1,9,0.00
2013-6-13,80.8,62.2,44.4,30.3,15.3,0.0,50,21,2,29.80,29.72,7,0,10,0.00
2013-6-14,80.0,59.7,35.7,30.9,11.3,0.0,47,18,2,29.76,29.66,12,1,12,0.00
2013-6-15,77.3,52.1,38.2,29.0,11.7,0.1,33,21,2,29.80,29.71,8,0,12,0.00
2013-6-16,78.1,58.4,33.5,31.5,9.9,0.0,36,17,2,29.87,29.79,8,1,10,0.00
2013-6-17,79.3,60.1,36.4,40.5,20.1,0.2,55,28,2,29.87,29.74,8,1,8,0.00
2013-6-18,82.3,62.2,43.8,30.8,15.5,0.1,48,22,3,29.77,29.61,6,1,8,0.00
2013-6-19,79.0,61.3,43.7,32.1,14.8,0.0,50,20,1,29.64,29.56,11,1,11,0.00
2013-6-20,80.3,60.1,38.2,38.0,18.8,0.0,61,26,5,29.68,29.62,7,0,9,0.00
2013-6-21,79.9,62.3,44.1,36.3,23.7,5.0,61,29,7,29.68,29.62,9,1,9,0.00
2013-6-22,76.5,61.2,45.1,43.7,28.5,20.6,57,32,13,29.69,29.62,10,1,11,0.00
2013-6-23,76.2,59.6,42.5,39.1,30.0,18.7,76,38,12,29.66,29.54,7,0,8,0.00
2013-6-24,68.1,58.1,46.8,44.6,36.6,14.4,81,47,15,29.71,29.56,7,1,7,0.00
2013-6-25,81.1,64.3,46.8,48.8,43.9,37.3,87,53,24,29.80,29.71,7,1,8,0.00
2013-6-26,82.0,67.6,51.7,47.7,44.8,37.2,79,48,23,29.82,29.74,8,1,9,0.00
2013-6-27,83.8,68.0,50.4,48.5,43.5,36.8,62,44,24,29.87,29.80,11,1,12,0.00
2013-6-28,91.1,69.8,49.6,43.7,35.3,22.6,57,31,13,29.88,29.73,10,1,10,0.00
2013-6-29,91.4,71.8,52.0,44.8,31.2,16.4,52,26,8,29.80,29.65,7,0,10,0.00
2013-6-30,89.8,72.0,53.2,41.8,33.2,23.8,41,26,12,29.72,29.60,6,0,9,0.00
2013-7-1,86.6,70.9,56.4,49.6,41.0,31.6,54,36,18,29.72,29.62,11,0,11,0.00
2013-7-2,86.6,70.0,53.4,46.5,41.0,37.1,74,39,19,29.79,29.70,11,0,11,0.00
2013-7-3,90.0,73.5,57.4,47.3,42.5,38.3,61,37,18,29.76,29.55,7,0,7,0.00
2013-7-4,89.3,70.7,54.2,59.3,42.4,38.6,59,39,20,29.63,29.51,7,0,9,0.00
2013-7-5,80.6,67.6,59.0,45.8,43.3,35.2,60,43,20,29.62,29.52,5,0,5,0.00
2013-7-6,83.5,66.2,53.0,46.0,35.9,21.7,61,36,14,29.65,29.54,8,0,8,0.00
2013-7-7,87.0,67.9,49.9,41.6,31.4,20.0,53,28,12,29.72,29.60,9,1,10,0.00
2013-7-8,86.2,66.8,47.0,39.1,26.8,17.0,48,27,8,29.84,29.71,8,0,10,0.00
2013-7-9,83.9,68.7,50.4,47.8,32.0,23.6,48,28,13,29.88,29.79,9,0,9,0.00
2013-7-10,83.5,72.2,62.1,42.7,35.6,31.5,38,27,18,29.84,29.64,9,1,10,0.00
2013-7-11,69.0,63.5,56.9,51.6,43.9,35.4,74,50,38,29.73,29.65,6,0,9,0.00
2013-7-12,75.1,61.4,50.9,51.1,45.2,38.6,79,57,34,29.81,29.71,6,0,8,0.00
2013-7-13,77.0,62.9,47.3,48.1,41.6,34.6,78,49,26,29.86,29.75,8,0,11,0.01
2013-7-14,80.5,66.0,52.1,47.1,40.9,34.1,59,41,22,29.83,29.67,7,0,9,0.00
2013-7-15,83.0,65.5,50.2,48.0,40.6,30.1,77,43,25,29.73,29.59,11,1,13,0.00
2013-7-16,83.9,67.0,48.6,37.3,31.5,21.8,54,29,12,29.76,29.64,10,1,10,0.00
2013-7-17,80.0,61.9,39.5,31.9,19.1,1.4,57,25,3,29.91,29.75,12,1,12,0.00
2013-7-18,84.3,65.9,45.1,33.7,23.5,18.0,49,23,9,29.91,29.74,11,1,11,0.00
2013-7-19,83.7,68.2,52.1,45.6,33.9,21.3,47,30,14,29.79,29.63,9,1,9,0.00
2013-7-20,79.9,68.3,58.7,59.3,47.8,35.3,82,49,35,29.72,29.56,13,1,13,0.03
2013-7-21,69.3,61.5,55.4,59.7,56.0,50.8,96,83,59,29.76,29.58,13,0,14,0.79
2013-7-22,70.8,60.2,52.3,62.7,56.3,50.0,96,87,64,29.83,29.72,8,0,11,1.29
2013-7-23,74.9,61.2,49.9,61.5,53.9,48.8,97,79,50,29.88,29.77,8,0,8,0.01
2013-7-24,79.6,64.5,50.2,57.7,51.2,41.9,96,65,40,29.85,29.72,5,0,9,0.00
2013-7-25,82.7,67.1,50.3,52.8,47.4,42.7,83,53,29,29.88,29.76,6,0,9,0.02
2013-7-26,72.9,60.7,53.9,60.2,54.2,46.1,95,81,45,29.91,29.82,6,0,8,0.18
2013-7-27,77.0,63.1,53.9,59.9,52.5,42.4,97,72,35,29.90,29.72,7,0,9,0.01
2013-7-28,78.9,62.4,47.9,51.5,45.0,34.8,84,56,28,29.75,29.62,7,0,8,0.00
2013-7-29,79.8,61.8,43.3,43.6,34.1,25.0,77,41,14,29.87,29.73,6,1,9,0.00
2013-7-30,80.9,64.8,47.9,47.3,41.8,34.9,76,47,21,29.90,29.81,8,1,10,0.00
2013-7-31,84.8,65.1,46.4,46.3,30.3,5.8,70,34,11,29.90,29.76,12,0,12,0.00
2013-8-1,83.8,63.6,44.4,29.1,17.6,0.0,46,21,3,29.81,29.69,9,0,9,0.00
2013-8-2,82.7,63.4,44.7,39.3,24.4,5.4,45,25,6,29.77,29.68,6,0,10,0.00
2013-8-3,82.8,62.9,43.2,34.1,20.1,0.7,43,22,5,29.82,29.75,9,1,10,0.00
2013-8-4,82.5,63.6,46.6,40.2,25.5,1.1,56,28,6,29.83,29.75,9,1,9,0.00
2013-8-5,82.3,64.6,48.7,35.8,19.3,3.4,41,20,6,29.83,29.74,7,1,8,0.00
2013-8-6,79.5,63.2,45.4,30.8,22.8,0.7,47,25,4,29.84,29.76,6,0,9,0.00
2013-8-7,77.6,63.4,48.9,28.2,20.7,1.9,36,21,6,29.84,29.77,10,1,11,0.00
2013-8-8,75.3,61.9,46.9,30.8,24.0,14.9,39,24,13,29.79,29.70,7,0,16,0.00
2013-8-9,77.0,59.6,41.6,33.2,24.3,13.5,47,28,11,29.78,29.72,7,0,8,0.00
2013-8-10,74.8,57.6,39.5,34.7,23.9,13.8,54,30,11,29.86,29.78,14,1,16,0.00
2013-8-11,75.2,57.5,37.9,35.4,28.2,22.8,70,36,17,29.89,29.78,9,1,12,0.00
2013-8-12,77.5,59.5,39.2,39.3,28.2,21.5,62,34,15,29.87,29.80,12,1,13,0.00
2013-8-13,78.3,60.9,41.2,38.3,28.3,21.6,63,34,13,29.90,29.79,11,1,13,0.00
2013-8-14,81.2,62.6,42.0,38.7,27.5,18.8,54,30,12,29.89,29.76,8,1,9,0.00
2013-8-15,83.4,65.5,48.4,44.4,38.6,29.0,60,39,21,29.84,29.74,12,1,12,0.00
2013-8-16,83.5,66.7,50.1,51.2,44.9,41.0,78,49,28,29.82,29.74,12,0,12,0.00
2013-8-17,87.5,69.5,50.4,47.4,43.2,36.1,74,42,21,29.81,29.64,9,0,9,0.00
2013-8-18,84.8,69.0,57.8,55.8,48.7,42.5,72,50,27,29.73,29.61,9,0,10,0.00
2013-8-19,80.6,67.1,54.9,54.0,49.3,44.0,78,56,29,29.75,29.67,9,0,9,0.00
2013-8-20,82.8,66.0,50.1,49.0,39.9,27.0,84,45,15,29.78,29.70,8,0,10,0.00
2013-8-21,85.8,67.9,51.3,46.0,38.8,33.0,65,37,17,29.77,29.68,13,1,13,0.00
2013-8-22,83.8,64.4,52.1,45.7,41.0,38.4,70,45,22,29.80,29.67,6,0,10,0.00
2013-8-23,81.3,64.0,47.1,47.1,38.4,31.7,78,43,19,29.74,29.60,8,1,8,0.00
2013-8-24,80.5,63.7,47.8,43.7,34.3,26.9,77,37,16,29.73,29.61,10,0,11,0.00
2013-8-25,78.5,61.2,43.8,50.0,43.4,34.9,86,56,26,29.81,29.70,12,0,12,0.00
2013-8-26,65.3,57.5,51.5,57.1,51.6,44.1,93,81,63,29.82,29.75,5,0,7,0.07
2013-8-27,77.8,61.3,47.1,58.6,51.5,45.7,96,73,42,29.81,29.67,14,0,14,0.01
2013-8-28,80.1,63.3,47.5,53.7,50.6,45.6,95,67,39,29.82,29.72,6,0,7,0.00
2013-8-29,73.5,61.0,49.8,60.2,53.9,46.5,93,79,55,29.91,29.80,10,0,11,0.16
2013-8-30,71.2,59.5,50.6,63.6,56.3,49.2,96,90,59,29.91,29.82,7,0,8,0.37
2013-8-31,76.6,63.3,56.5,61.3,57.1,54.6,97,82,54,29.89,29.74,7,0,8,0.00
2013-9-1,79.9,62.9,53.3,54.9,49.1,44.0,95,65,31,29.82,29.71,9,0,12,0.00
2013-9-2,76.0,61.3,48.3,57.2,50.2,45.1,90,69,39,29.80,29.71,5,0,5,0.00
2013-9-3,75.8,63.1,50.8,55.6,51.4,47.4,92,68,40,29.83,29.74,10,0,10,0.00
2013-9-4,76.5,58.4,49.1,59.3,50.1,46.0,92,77,41,29.89,29.82,8,0,11,0.29
2013-11-7,40.1,34.0,30.1,18.3,15.0,13.3,61,46,34,30.17,30.13,0,0,0,0.00
2013-11-8,63.7,41.4,26.5,21.4,10.6,0.0,66,33,6,30.14,29.98,6,0,8,0.00
2013-11-9,62.5,40.4,25.3,17.0,8.7,0.0,53,30,9,30.16,30.02,6,0,6,0.00
2013-11-10,61.0,41.1,28.7,23.7,12.0,0.0,59,34,8,30.20,30.10,9,0,9,0.00
2013-11-11,63.2,42.5,24.4,21.4,11.8,1.9,46,31,11,30.28,30.17,12,1,13,0.00
2013-11-12,66.0,45.4,29.1,25.0,17.1,8.5,56,34,14,30.34,30.20,4,0,6,0.00
2013-11-13,62.9,43.0,28.2,25.6,18.3,14.5,74,41,16,30.23,30.06,7,0,9,0.00
2013-11-14,61.8,44.2,26.3,24.4,19.0,13.5,69,40,18,30.16,29.78,9,0,11,0.00
2013-11-15,51.7,40.2,20.4,32.4,23.5,16.1,90,55,29,29.78,29.48,6,0,9,0.00
2013-11-16,52.0,34.4,18.9,34.7,27.0,15.1,95,78,33,29.94,29.68,6,0,6,0.00
2013-11-17,50.4,34.0,23.0,34.9,27.9,21.2,95,81,47,30.17,29.94,10,0,11,0.01
2013-11-18,53.9,36.3,21.4,36.3,27.6,19.4,95,73,39,30.23,30.09,4,0,6,0.00
2013-11-19,57.7,44.5,31.1,30.0,21.0,6.6,71,42,16,30.09,29.85,8,0,9,0.00
2013-11-20,52.6,42.6,33.8,38.2,33.6,27.8,95,72,52,29.85,29.71,8,0,9,0.00
2013-11-21,44.0,37.5,32.1,37.5,34.5,30.8,95,89,70,29.83,29.73,5,0,6,0.14
2013-11-22,32.1,29.0,26.6,30.7,27.4,24.9,95,94,90,30.03,29.82,5,0,5,0.00
2013-11-23,32.4,28.5,25.7,29.8,26.8,23.9,95,93,89,30.18,30.01,5,0,6,0.00
2013-11-24,36.2,28.3,22.8,32.7,26.4,21.3,95,92,79,30.35,30.17,7,0,7,0.06
2013-11-25,48.1,34.7,21.4,32.2,20.9,14.0,96,63,26,30.44,30.34,8,0,9,0.08
2013-11-26,50.7,36.8,23.3,27.2,22.7,17.1,84,59,33,30.39,30.15,9,0,9,0.01
2013-11-27,50.1,34.1,23.4,30.8,24.9,21.1,92,71,37,30.17,29.96,5,0,6,0.00
2013-11-28,46.4,30.5,21.8,27.8,23.1,18.6,92,76,42,30.22,30.02,7,0,8,0.00
2013-11-29,45.2,32.3,22.7,34.2,28.0,20.7,94,85,57,30.29,30.20,8,0,8,0.03
2013-11-30,44.4,31.7,22.0,35.0,25.4,20.3,96,79,51,30.33,30.20,5,0,6,0.01
2013-12-1,51.4,39.2,25.5,27.6,10.5,2.1,70,33,14,30.41,30.28,8,0,8,0.00
2013-12-2,60.4,41.2,24.9,24.0,13.7,5.9,61,35,18,30.33,29.92,6,0,6,0.00
2013-12-3,53.4,42.1,33.9,35.1,24.5,9.6,94,54,27,29.92,29.47,14,1,16,0.01
2013-12-4,33.9,26.0,20.1,32.5,17.9,2.4,95,74,27,29.95,29.47,8,0,16,0.01
2013-12-5,31.2,21.7,12.8,18.6,15.2,7.1,93,78,41,30.17,29.94,6,0,12,0.00
2013-12-6,35.1,23.1,13.7,22.1,16.8,4.9,93,79,30,30.26,30.14,6,0,8,0.00
2013-12-7,30.3,24.2,19.6,27.3,20.9,13.9,92,87,76,30.15,29.94,13,1,16,0.00
2013-12-8,36.1,20.5,5.8,18.5,8.1,0.0,93,61,20,30.32,30.10,5,0,7,0.00
2013-12-9,30.0,18.0,3.1,0.1,0.1,0.1,79,28,6,30.62,30.32,11,1,13,0.00
2013-12-10,42.5,22.9,7.2,6.4,0.5,0.0,61,34,13,30.60,30.35,9,0,11,0.01
2013-12-11,44.3,26.6,8.4,11.8,2.5,0.0,65,38,16,30.50,30.38,7,0,9,0.00
2013-12-12,40.2,28.9,21.5,33.0,16.6,0.2,92,63,30,30.43,30.23,6,0,7,0.02
2013-12-13,45.8,32.9,21.1,20.5,10.2,0.6,92,44,16,30.43,30.27,13,0,13,0.00
2013-12-14,44.7,32.5,22.8,13.8,6.8,0.0,61,36,17,30.54,30.39,9,1,11,0.00
2013-12-15,57.5,41.3,21.5,17.6,11.0,1.5,57,31,15,30.54,30.33,11,1,12,0.00
2013-12-16,61.8,40.4,27.0,23.4,17.8,6.4,71,44,19,30.39,30.26,9,1,12,0.00
2013-12-17,65.6,42.8,27.5,26.5,18.4,11.6,68,43,13,30.37,30.16,6,0,6,0.00
2013-12-18,59.1,45.1,34.9,24.0,19.2,12.5,55,37,20,30.16,29.65,8,0,9,0.00
2013-12-19,38.4,31.1,26.9,28.3,24.4,13.2,93,78,41,29.77,29.53,8,1,11,0.00
2013-12-20,34.7,27.7,20.9,27.6,19.3,3.0,93,72,38,30.06,29.77,8,0,8,0.03
2013-12-21,45.2,33.9,24.6,25.9,21.4,14.1,83,62,36,30.17,29.99,13,1,13,0.02
2013-12-22,48.0,31.1,18.5,25.2,17.6,7.2,87,62,19,30.46,30.16,5,0,6,0.03
2013-12-23,50.6,34.3,21.5,27.6,21.7,17.9,90,63,33,30.52,30.38,9,0,9,0.02
2013-12-24,52.7,34.1,22.8,25.5,20.2,14.3,84,62,24,30.45,30.34,13,0,14,0.00
2013-12-25,47.7,31.6,15.9,19.1,7.9,0.0,87,43,10,30.50,30.38,8,0,10,0.00
2013-12-26,49.3,34.3,16.3,8.4,2.2,0.0,64,27,11,30.49,30.36,14,1,14,0.00
2013-12-27,54.3,36.8,21.9,13.8,3.9,0.0,57,26,10,30.41,30.20,9,0,10,0.00
2013-12-28,53.4,37.2,24.6,21.4,7.2,0.0,65,33,9,30.22,30.02,8,1,10,0.00
2013-12-29,44.1,31.4,20.6,9.8,3.2,0.0,55,27,7,30.34,30.15,13,1,15,0.00
2013-12-30,58.8,34.2,18.9,7.3,1.0,0.0,48,21,5,30.44,30.28,4,0,6,0.00
2013-12-31,59.1,37.5,23.0,14.8,8.7,3.8,59,34,13,30.34,30.15,5,0,5,0.00
2014-1-1,54.5,35.5,22.6,19.6,13.4,6.3,65,43,23,30.28,30.15,10,0,10,0.00
2014-1-2,56.2,35.1,21.1,21.9,16.5,14.5,78,51,21,30.30,30.13,7,0,9,0.00